Weather History for Odessa, TX

Change the Weather History Date:

Wednesday, January 30, 2013

  Actual Average (KMAF) Record (KMAF)
Temperature  
Mean Temperature 39 °F 45 °F  
Max Temperature 50 °F 59 °F 80 °F (1971)
Min Temperature 28 °F 32 °F 8 °F (1951)
Degree Days  
Heating Degree Days 26 20  
Month to date heating degree days 638  
Since 1 July heating degree days 1754  
Moisture  
Dew Point 12 °F    
Average Humidity 39    
Maximum Humidity 75    
Minimum Humidity 13    
Precipitation  
Precipitation 0.00 in 0.02 in 0.29 in (1964)
Month to date precipitation 0.53  
Year to date precipitation 0.53  
Snow  
Snow 0.00 in - - ()
Month to date snowfall  
Since 1 July snowfall  
Snow Depth -    
Sea Level Pressure  
Sea Level Pressure 30.09 in    
Wind  
Wind Speed 13 mph (WNW)    
Max Wind Speed 26 mph    
Max Gust Speed 39 mph    
Visibility 10 miles    
Events      
T = Trace of Precipitation, MM = Missing Value Source: NWS Daily Summary

Daily Weather History Graph

Daily Weather History Graph

Search for Another Location

Airport:

Trip Planner

Search our weather history database for the weather conditions in past years. The results will help you decide how hot, cold, wet, or windy it might be!

Date:

Astronomy

Jan. 30, 2013 Rise Set
Actual Time 7:44 AM CST 6:22 PM CST
Civil Twilight 7:18 AM CST 6:47 PM CST
Nautical Twilight 6:49 AM CST 7:17 PM CST
Astronomical Twilight 6:20 AM CST 7:45 PM CST
Moon 10:04 PM CST (1/30) 9:29 AM CST (1/30)
Length of Visible Light 11h 29m
Length of Day
10h 38m
Waning Gibbous, 87% of the Moon is Illuminated
Jan 30
Waning Gibbous
Feb 3
Last Quarter
Feb 10
New
Feb 17
First Quarter
Feb 25
Full

Hourly Weather History & Observations

Time (CST) Temp. Windchill Dew Point Humidity Pressure Visibility Wind Dir Wind Speed Gust Speed Precip Events Conditions
12:53 AM 37.9 °F 26.3 °F 16.0 °F 41% 29.89 in 10.0 mi NW 26.5 mph 39.1 mph N/A   Clear
1:53 AM 35.1 °F 25.5 °F 23.0 °F 61% 29.94 in 10.0 mi NW 15.0 mph 23.0 mph N/A   Clear
2:53 AM 34.0 °F 25.0 °F 23.0 °F 64% 29.96 in 10.0 mi NNW 12.7 mph 20.7 mph N/A   Clear
3:53 AM 32.0 °F 24.2 °F 23.0 °F 69% 30.00 in 10.0 mi NW 9.2 mph - N/A   Clear
4:53 AM 30.0 °F 22.4 °F 23.0 °F 75% 30.02 in 10.0 mi WNW 8.1 mph - N/A   Clear
5:53 AM 28.9 °F 21.9 °F 21.0 °F 72% 30.06 in 10.0 mi NW 6.9 mph - N/A   Clear
6:53 AM 30.0 °F 21.1 °F 19.9 °F 66% 30.09 in 10.0 mi NW 10.4 mph - N/A   Clear
7:53 AM 28.9 °F 20.4 °F 19.0 °F 67% 30.12 in 10.0 mi NW 9.2 mph - N/A   Clear
8:53 AM 32.0 °F 24.8 °F 19.0 °F 59% 30.14 in 10.0 mi NW 8.1 mph - N/A   Clear
9:53 AM 37.9 °F 31.5 °F 16.0 °F 41% 30.17 in 10.0 mi NNW 9.2 mph 17.3 mph N/A   Clear
10:53 AM 41.0 °F 37.1 °F 16.0 °F 36% 30.17 in 10.0 mi Variable 5.8 mph - N/A   Clear
11:53 AM 44.1 °F 37.1 °F 12.9 °F 28% 30.16 in 10.0 mi WNW 15.0 mph 23.0 mph N/A   Clear
12:53 PM 46.9 °F - 12.0 °F 24% 30.13 in 10.0 mi West 15.0 mph 23.0 mph N/A   Clear
1:53 PM 48.0 °F - 6.1 °F 18% 30.09 in 10.0 mi West 17.3 mph - N/A   Clear
2:53 PM 50.0 °F - 1.0 °F 13% 30.09 in 10.0 mi WNW 20.7 mph 27.6 mph N/A   Clear
3:53 PM 50.0 °F - 3.0 °F 15% 30.09 in 10.0 mi WNW 15.0 mph 28.8 mph N/A   Clear
4:53 PM 50.0 °F - 6.1 °F 17% 30.10 in 10.0 mi West 13.8 mph - N/A   Clear
5:53 PM 48.9 °F - 1.9 °F 15% 30.11 in 10.0 mi West 9.2 mph - N/A   Clear
6:53 PM 45.0 °F 41.8 °F 1.0 °F 16% 30.12 in 10.0 mi West 5.8 mph - N/A   Clear
7:53 PM 42.1 °F 39.2 °F 3.0 °F 20% 30.13 in 10.0 mi West 4.6 mph - N/A   Clear
8:53 PM 41.0 °F 38.0 °F 3.0 °F 21% 30.14 in 10.0 mi West 4.6 mph - N/A   Clear
9:53 PM 37.0 °F - 6.1 °F 28% 30.13 in 10.0 mi Calm Calm - N/A   Clear
10:53 PM 36.0 °F - 8.1 °F 31% 30.14 in 10.0 mi Calm Calm - N/A   Clear
11:53 PM 35.1 °F 32.2 °F 8.1 °F 33% 30.14 in 10.0 mi SSW 3.5 mph - N/A   Clear